Saint Catherine, Egypt

12:33 AM EET on January 20, 2017 (GMT +0200)
Saint Catherine International

Weather History for HESC - June, 2014

Change the Weather History Date:

Tuesday, June 3, 2014

  Actual Average Record
Temperature  
Mean Temperature 74 °F -  
Max Temperature 84 °F - - ()
Min Temperature 64 °F - - ()
Cooling Degree Days 9    
Growing Degree Days 24 (Base 50)    
Moisture  
Dew Point 38 °F    
Average Humidity 28    
Maximum Humidity 37    
Minimum Humidity 19    
Precipitation  
Precipitation 0.00 in - - ()
Sea Level Pressure  
Sea Level Pressure 30.22 in    
Wind  
Wind Speed 7 mph ()    
Max Wind Speed 18 mph    
Max Gust Speed -    
T = Trace of Precipitation, MM = Missing Value Source: Averaged Metar Reports

Daily Weather History Graph

Daily Weather History Graph

Search for Another Location

Airport or City:

Trip Planner

Search our weather history database for the weather conditions in past years. The results will help you decide how hot, cold, wet, or windy it might be!

Date:

Astronomy

Jun. 03, 2014 Rise Set
Actual Time 5:45 AM EEST 7:38 PM EEST
Civil Twilight 5:19 AM EEST 8:04 PM EEST
Nautical Twilight 4:46 AM EEST 8:37 PM EEST
Astronomical Twilight 4:12 AM EEST 9:11 PM EEST
Moon 10:34 AM EEST (6/3) 11:45 PM EEST (6/3)
Length of Visible Light 14h 45m
Length of Day
13h 52m
Waxing Crescent, 27% of the Moon is Illuminated
Jun 3
Waxing Crescent
Jun 5
First Quarter
Jun 13
Full
Jun 19
Last Quarter
Jun 27
New

Hourly Weather History & Observations

Time (EEST) Temp. Dew Point Humidity Pressure Visibility Wind Dir Wind Speed Gust Speed Precip Events Conditions
12:00 AM 66.2 °F 39.2 °F 37% 30.21 in - NW 11.5 mph - N/A   Clear
1:00 AM 68.0 °F 35.6 °F 30% 30.21 in - NW 9.2 mph - N/A   Clear
2:00 AM 66.2 °F 35.6 °F 32% 30.21 in - Calm Calm - N/A   Clear
3:00 AM 66.2 °F 39.2 °F 37% 30.18 in - Calm Calm - N/A   Clear
4:00 AM 64.4 °F 37.4 °F 37% 30.18 in - Calm Calm - N/A   Clear
5:00 AM 64.4 °F 37.4 °F 37% 30.18 in - Calm Calm - N/A   Clear
6:00 AM 64.4 °F 37.4 °F 37% 30.21 in - Calm Calm - N/A   Clear
7:00 AM 68.0 °F 39.2 °F 35% 30.24 in - Calm Calm - N/A   Clear
8:00 AM 71.6 °F 42.8 °F 35% 30.24 in - Calm Calm - N/A   Clear
9:00 AM 73.4 °F 37.4 °F 27% 30.24 in - NE 16.1 mph - N/A   Clear
10:00 AM 75.2 °F 33.8 °F 22% 30.24 in - ENE 15.0 mph - N/A   Clear
11:00 AM 77.0 °F 37.4 °F 24% 30.24 in - NE 13.8 mph - N/A   Clear
12:00 PM 80.6 °F 37.4 °F 21% 30.24 in - ENE 17.3 mph - N/A   Clear
1:00 PM 80.6 °F 37.4 °F 21% 30.24 in - NE 18.4 mph - N/A   Clear
2:00 PM 82.4 °F 37.4 °F 20% 30.24 in - NE 13.8 mph - N/A   Clear
3:00 PM 82.4 °F 35.6 °F 19% 30.21 in - NE 17.3 mph - N/A   Clear
4:00 PM 82.4 °F 37.4 °F 20% 30.21 in - NE 12.7 mph - N/A   Clear
5:00 PM 84.2 °F 37.4 °F 19% 30.21 in - ENE 13.8 mph - N/A   Clear
6:00 PM 82.4 °F 39.2 °F 21% 30.21 in - ENE 9.2 mph - N/A   Clear
7:00 PM 80.6 °F 39.2 °F 23% 30.21 in - NE 6.9 mph - N/A   Clear
8:00 PM 78.8 °F 39.2 °F 24% 30.21 in - NE 10.4 mph - N/A   Clear
9:00 PM 77.0 °F 37.4 °F 24% 30.21 in - ENE 11.5 mph - N/A   Clear
10:00 PM 75.2 °F 39.2 °F 27% 30.21 in - NE 11.5 mph - N/A   Clear
11:00 PM 73.4 °F 44.6 °F 36% 30.21 in - ENE 5.8 mph - N/A   Clear